Location: Bakhuizen
(52.8696°N, 5.4575°E)
Time: 06:43:00
(UTC+00:00)

Cosmos 1898 Rocket - Pass Details

Date: 11 May 2021
Orbit: 753 x 784 km, 74.0° (Epoch: 20 June)

Event Time Altitude Azimuth Distance (km) Brightness Sun altitude
Exits shadow 22:47:31 19° 218° (SW) 1,801 5.1 -18.3°
Maximum altitude 22:51:23 68° 299° (WNW) 843 3.8 -18.4°
Drops below altitude 10° 22:56:44 10° 23° (NNE) 2,353 6.9 -18.5°
Sets 22:59:09 0° 26° (NNE) 3,286 7.7 -18.6°
